#timestamp,LO_Frequency,Hit 
1504314015.1,286047003.8,N
1504314016.0,286047003.8,N
1504314035.8,286047005.8,N
1504314055.6,286047003.2,N
1504314075.5,286047004.9,N
1504314095.3,286047006.5,N
1504314115.1,286047009.1,N
1504314135.9,286047010.3,N
1504314155.7,286047013.4,N
1504314175.5,286047012.8,N
1504314195.4,286047013.8,N
1504314215.2,286047014.1,N
1504314235.0,286047018.1,N
1504314235.9,286047018.1,N
1504314255.8,286047019.6,N
1504314275.6,286047022.0,N
1504314295.4,286047019.4,N
1504314315.3,286047019.6,N
1504314335.1,286047021.7,N
1504314336.0,286047021.7,N
1504314355.8,286047018.3,N
1504314375.7,286047014.2,N
1504314395.5,286047014.0,N
1504314415.3,286047011.3,N
1504314435.1,286047011.2,N
1504314455.9,286047009.6,N
1504314475.7,286047009.4,N
1504314495.5,286047010.9,N
1504314515.4,286047009.3,N
1504314535.2,286047008.2,N
1504314555.0,286047008.0,N
1504314555.9,286047008.0,N
1504314575.8,286047013.8,N
1504314595.6,286047012.6,N
1504314615.4,286047016.9,P
1504314635.3,286046999.7,N
1504314655.1,286046999.5,N
1504314675.8,286046999.6,N
1504314695.7,286047000.9,N
1504314715.5,286047000.9,N
1504314735.3,286047003.7,N
1504314755.2,286047003.0,N
1504314775.9,286047006.4,N
1504314795.7,286047006.1,N
1504314815.6,286047010.3,N
1504314835.4,286047006.7,N
1504314855.2,286047007.0,N
1504314875.1,286047006.9,N
1504314876.0,286047006.9,N
1504314895.8,286047006.4,N
1504314915.6,286047006.1,N
1504314935.5,286047005.7,N
1504314955.3,286047006.0,N
1504314975.1,286047003.1,N
1504314995.9,286047004.2,N
1504315015.7,286047000.0,N
1504315035.5,286046998.6,N
1504315055.3,286046996.2,N
1504315075.2,286047000.3,N
1504315095.0,286047000.9,N
1504315095.9,286047000.9,N
1504315115.7,286046999.3,N
1504315135.6,286046997.0,N
1504315155.4,286046995.1,N
1504315175.2,286046991.8,N
1504315195.1,286046991.5,N
1504315196.0,286046991.5,N
1504315215.8,286046988.1,N
1504315235.6,286046986.1,N
1504315255.5,286046986.0,N
1504315275.3,286046988.2,N
1504315295.1,286046989.6,N
1504315315.9,286046985.3,N
1504315335.7,286046983.9,N
1504315355.5,286046984.8,N
1504315375.4,286046984.8,N
1504315395.2,286046984.3,N
1504315415.0,286046981.5,N
1504315415.9,286046981.5,N
1504315435.8,286046979.6,N
1504315455.6,286046980.8,N
1504315475.4,286046982.0,N
1504315495.2,286046981.8,N
1504315515.1,286046980.4,N
1504315516.0,286046980.4,N
1504315535.8,286046978.7,N
1504315555.7,286046978.4,P
1504315575.5,286046988.2,N
1504315595.3,286046992.5,N
1504315615.2,286046991.8,N
1504315635.9,286046993.6,N
1504315655.7,286046996.0,N
1504315675.5,286046996.3,N
1504315695.4,286046993.9,N
1504315715.2,286046992.9,N
1504315735.0,286046992.8,N
1504315735.9,286046992.8,N
1504315755.8,286046994.4,N
1504315775.6,286046990.1,N
1504315795.4,286046991.0,N
1504315815.3,286046990.8,N
1504315835.1,286046989.2,N
1504315836.0,286046989.2,N
1504315855.8,286046992.3,N
1504315875.7,286046995.7,N
1504315895.5,286046991.7,N
1504315915.3,286046987.3,P
1504315935.2,286046999.4,N
1504315955.9,286047002.3,N
1504315975.7,286047004.9,N
1504315995.6,286047013.6,N
1504316015.4,286047012.6,N
1504316035.2,286047014.1,N
1504316055.1,286047018.2,N
1504316056.0,286047018.2,N
1504316075.8,286047017.1,N
1504316095.6,286047012.9,N
1504316115.5,286047016.4,N
1504316135.3,286047018.4,N
1504316155.1,286047018.7,N
1504316175.9,286047018.7,N
1504316195.7,286047016.1,N
1504316215.5,286047016.0,N
1504316235.3,286047020.2,N
1504316255.2,286047020.1,N
1504316275.0,286047019.0,N
1504316275.9,286047019.0,N
1504316295.7,286047019.0,N
1504316315.6,286047019.1,N
1504316335.4,286047020.7,N
1504316355.2,286047018.0,N
1504316375.1,286047018.4,N
1504316376.0,286047018.4,N
1504316395.8,286047021.3,N
1504316415.6,286047021.1,N
1504316435.5,286047021.5,N
1504316455.3,286047018.5,N
1504316475.1,286047019.3,P
1504316495.9,286047009.2,P
1504316515.7,286047007.6,N
1504316535.5,286047005.4,N
1504316555.4,286047007.5,N
1504316575.2,286047007.5,N
1504316595.0,286047007.8,N
1504316595.9,286047007.8,N
1504316615.8,286047008.2,N
1504316635.6,286047008.1,N
1504316655.4,286047005.7,N
1504316675.3,286047001.5,N
1504316695.1,286047001.8,N
1504316696.0,286047001.8,N
1504316715.8,286047001.6,N
1504316735.7,286047001.8,N
1504316755.5,286047001.3,N
1504316775.3,286047000.2,N
1504316795.2,286047000.0,N
1504316815.9,286047004.8,N
1504316835.7,286047003.8,N
1504316855.5,286047003.1,N
1504316875.4,286047007.0,N
1504316895.2,286047002.9,N
1504316915.0,286047005.6,N
1504316915.9,286047005.6,N
1504316935.8,286047002.5,N
1504316955.6,286047001.8,N
1504316975.4,286047005.6,N
1504316995.3,286047003.0,N
1504317015.1,286047005.0,N
1504317035.8,286047005.5,N
1504317055.7,286047008.5,P
1504317075.5,286047004.6,N
1504317095.3,286047002.0,N
1504317115.2,286046995.3,N
1504317135.9,286046994.3,N
1504317155.7,286046990.8,N
1504317175.6,286046984.2,N
1504317195.4,286046983.5,N
1504317215.2,286046981.2,N
1504317235.1,286046983.1,N
1504317236.0,286046983.1,N
1504317255.8,286046985.1,N
1504317275.6,286046986.1,N
1504317295.5,286046984.0,N
1504317315.3,286046986.7,N
1504317335.1,286046986.1,N
1504317355.8,286046984.6,N
1504317375.7,286046985.6,N
1504317395.5,286046987.3,N
1504317415.3,286046989.1,N
1504317435.2,286046983.0,N
1504317455.9,286046979.9,N
1504317475.7,286046978.1,N
1504317495.6,286046979.7,N
1504317515.4,286046976.2,N
1504317535.2,286046975.6,N
1504317555.1,286046974.6,N
1504317556.0,286046974.6,N
1504317575.8,286046976.4,N
1504317595.6,286046973.2,P
